User: anonymous   Login
Location: Stoke Bliss
(52.2667°N, 2.5167°W)
Time: 12:42:19
(UTC+00:00)
Language:

IRIDIUM 33 DEB - Orbit

View from above orbital plane
View from above orbital plane
View from above satellite
View from above satellite

Ground track
Ground track

The orbit data is extracted from the following two-line orbital elements,

1 33874U 97051AT  21262.92279163  .00001968  00000-0  67289-3 0  9998
2 33874  86.2908 330.7335 0067633  58.5104 116.8342 14.34552884655456
Epoch (UTC): 19 September 2021 22:08:49
Eccentricity: 0.0067633
inclination: 86.2908°
perigee height: 728 km
apogee height: 825 km
right ascension of ascending node: 330.7335°
argument of perigee: 58.5104°
revolutions per day: 14.34552884
mean anomaly at epoch: 116.8342°
orbit number at epoch: 65545

The dashed part of the orbit path shows where the satellite is in the earth's shadow,  

DLR